Location: DARK SKY Beskydy - Park tmavé oblohy, www.darkskybeskydy.cz
(49.4926°N, 18.5016°E)
Time: 05:02:32
(UTC+02:00)

Transit 2A Rocket - Visible Passes

Search period start: 13 July 2024 00:00
Search period end: 23 July 2024 00:00
Orbit: 582 x 910 km, 66.7° (Epoch: 12 July)

Date Brightness Start Highest point End Pass type
(mag) Time Alt. Az. Time Alt. Az. Time Alt. Az.
13 Jul 6.2 01:36:49 10° NW 01:42:06 32° WSW 01:43:58 26° SW visible
13 Jul 7.6 21:27:15 10° NNW 21:31:23 19° NNE 21:35:33 10° ENE visible
13 Jul 6.3 23:09:42 10° NNW 23:15:30 43° NE 23:20:47 12° ESE visible
14 Jul 5.7 00:52:21 10° NW 00:58:12 49° WSW 01:00:32 33° S visible
14 Jul 6.7 22:25:38 10° NNW 22:31:03 32° NE 22:36:25 10° E visible
15 Jul 5.3 00:08:05 10° NW 00:14:11 76° WSW 00:17:11 31° SSE visible
15 Jul 7.0 01:52:18 10° WNW 01:55:46 16° WSW 01:56:57 15° WSW visible
15 Jul 7.1 21:41:32 10° NNW 21:46:28 25° NNE 21:51:23 10° E visible
15 Jul 5.5 23:23:54 10° NW 23:30:02 74° NE 23:33:53 23° SE visible
16 Jul 6.5 01:07:12 10° NW 01:12:04 26° WSW 01:13:39 23° SW visible
16 Jul 6.0 22:39:48 10° NNW 22:45:44 51° NE 22:50:38 15° ESE visible
17 Jul 6.0 00:22:36 10° NW 00:28:14 40° WSW 00:30:24 30° SSW visible
17 Jul 6.5 21:55:43 10° NNW 22:01:20 37° NE 22:06:52 10° ESE visible
17 Jul 5.5 23:38:14 10° NW 23:44:16 63° WSW 23:47:12 30° S visible
18 Jul 7.3 01:23:23 10° WNW 01:25:38 12° W 01:26:58 11° WSW visible
18 Jul 5.3 22:54:01 10° NW 23:00:10 87° NE 23:04:02 23° SE visible
19 Jul 6.9 00:37:40 10° WNW 00:42:00 21° WSW 00:43:48 18° SW visible
19 Jul 5.7 22:09:53 10° NNW 22:15:56 60° NE 22:20:54 15° SE visible
19 Jul 6.4 23:52:53 10° NW 23:58:13 33° WSW 00:00:41 24° SSW visible
20 Jul 6.2 21:25:47 10° NNW 21:31:34 42° NE 21:37:15 10° ESE visible
20 Jul 5.8 23:08:25 10° NW 23:14:19 51° WSW 23:17:37 25° S visible
21 Jul 5.4 22:24:08 10° NW 22:30:16 78° WSW 22:34:34 20° SSE visible
22 Jul 7.2 00:08:17 10° WNW 00:11:52 16° WSW 00:14:21 13° SW visible
22 Jul 5.5 21:39:57 10° NW 21:46:05 72° NE 21:51:34 12° SE visible
22 Jul 6.8 23:23:12 10° NW 23:28:09 26° WSW 23:31:22 17° SSW visible
